Location: Newark
(25.4800°N, 85.7200°E)
Time: 07:47:45
(UTC+00:00)

Explorer 11/Cluster Stage 4 - Pass Details

Date: 25 August 2019
Orbit: 467 x 1259 km, 28.8° (Epoch: 15 October)

Event Time Altitude Azimuth Distance (km) Brightness Sun altitude
Rises 04:03:57 0° 256° (WSW) 3,925 9.9 54.8°
Reaches altitude 10° 04:06:37 10° 257° (WSW) 3,050 9.4 55.4°
Maximum altitude 04:14:28 86° 345° (NNW) 1,246 8.7 57.1°
Drops below altitude 10° 04:22:48 10° 76° (ENE) 3,217 10.3 58.8°
Sets 04:25:41 0° 77° (ENE) 4,149 10.6 59.4°
